Flight Track Log - Related Links

Times and Time Zones

All times are in EDT time to prevent confusion due to time zone crossing. See the FFT403 flight status page for this flight to view local times or setup timezone preferences in your user account.

Time Position Orientation Groundspeed Altitude Reporting Facility
EDT Latitude Longitude Course Direction KTS MPH feet Rate Location/Type
Sat 10:53:45 AM 39.8333 -104.7667 241° Southwest 188 216 6,800  Level Denver TRACON
Sat 10:54:45 AM 39.8167 -104.8333 252° West 235 270 8,200 1,737 Climbing Denver TRACON
Sat 10:55:39 AM 39.8000 -104.9167 255° West 281 323 10,100 1,793 Climbing Denver TRACON
Sat 10:56:12 AM 39.7811 -104.9744 247° West 286 329 10,800 1,958 Climbing Denver Center
Sat 10:57:14 AM 39.7422 -105.0928 247° West 332 382 13,200 2,516 Climbing Denver Center
Sat 10:58:16 AM 39.7028 -105.2028 245° Southwest 336 387 16,000 2,323 Climbing Denver Center
Sat 10:59:00 AM 39.6321 -105.3694 241° Southwest  Level FlightAware Approximate
Sat 10:59:18 AM 39.6625 -105.3144 245° Southwest 342 394 18,000  Level Denver Center
Sat 11:00:20 AM 39.6181 -105.4386 245° Southwest 355 409 20,800 2,226 Climbing Denver Center
Sat 11:01:22 AM 39.5761 -105.5550 245° Southwest 361 415 22,600 1,742 Climbing Denver Center
Sat 11:02:24 AM 39.5322 -105.6839 246° West 373 429 24,400 1,597 Climbing Denver Center
Sat 11:03:26 AM 39.4967 -105.8136 250° West 381 438 25,900 1,597 Climbing Denver Center
Sat 11:04:28 AM 39.4636 -105.9461 252° West 386 444 27,700 1,065 Climbing Denver Center
Sat 11:05:30 AM 39.4256 -106.0797 250° West 394 453 28,100 960 Climbing Denver Center
Sat 11:06:33 AM 39.3667 -106.2286 243° Southwest 400 460 29,700 1,392 Climbing Denver Center
Sat 11:07:35 AM 39.3100 -106.3481 239° Southwest 405 466 31,000 1,113 Climbing Denver Center
Sat 11:08:37 AM 39.2447 -106.4897 239° Southwest 410 472 32,000 484 Climbing Denver Center
Sat 11:09:39 AM 39.1894 -106.6117 240° Southwest 410 472 32,000  Level Denver Center
Sat 11:10:41 AM 39.1233 -106.7528 239° Southwest 410 472 32,000  Level Denver Center
Sat 11:11:43 AM 39.0681 -106.8728 239° Southwest 409 471 32,000  Level Denver Center
Sat 11:12:45 AM 39.0022 -107.0133 239° Southwest 409 471 32,000 290 Level Denver Center
Sat 11:13:47 AM 38.9461 -107.1331 239° Southwest 409 471 32,600 968 Climbing Denver Center
Sat 11:14:49 AM 38.8894 -107.2519 239° Southwest 406 467 34,000 1,306 Climbing Denver Center
Sat 11:15:51 AM 38.8272 -107.3853 239° Southwest 392 451 35,300 1,210 Climbing Denver Center
Sat 11:16:53 AM 38.7708 -107.5039 239° Southwest 403 464 36,500 1,161 Climbing Denver Center
Sat 11:17:55 AM 38.7078 -107.6369 239° Southwest 394 453 37,700 726 Climbing Denver Center
Sat 11:18:57 AM 38.6539 -107.7497 239° Southwest 387 445 38,000 145 Climbing Denver Center
Sat 11:19:59 AM 38.5906 -107.8808 238° Southwest 387 445 38,000  Level Denver Center
Sat 11:21:01 AM 38.5364 -107.9958 239° Southwest 393 452 38,000  Level Denver Center
Sat 11:22:03 AM 38.4739 -108.1250 238° Southwest 382 440 38,000  Level Denver Center
Sat 11:23:05 AM 38.4189 -108.2375 238° Southwest 388 447 38,000 -48 Level Denver Center
Sat 11:24:07 AM 38.3569 -108.3664 239° Southwest 383 441 37,900  Descending Denver Center
Sat 11:25:09 AM 38.3028 -108.4808 239° Southwest 390 449 38,000 48 Climbing Denver Center
Sat 11:26:11 AM 38.2469 -108.5919 237° Southwest 390 449 38,000  Level Denver Center
Sat 11:27:13 AM 38.1828 -108.7239 238° Southwest 391 450 38,000  Level Denver Center
Sat 11:28:15 AM 38.1275 -108.8342 238° Southwest 387 445 38,000  Level Denver Center
Sat 11:29:17 AM 38.0647 -108.9617 238° Southwest 383 441 38,000  Level Denver Center
Sat 11:30:19 AM 38.0072 -109.0739 237° Southwest 377 434 38,000  Level Denver Center
Sat 11:31:21 AM 37.9525 -109.1828 238° Southwest 381 438 38,000  Level Denver Center
Sat 11:32:24 AM 37.8892 -109.3103 238° Southwest 382 440 38,000  Level Denver Center
Sat 11:33:26 AM 37.8356 -109.4181 238° Southwest 380 437 38,000  Level Denver Center
Sat 11:34:28 AM 37.7717 -109.5453 238° Southwest 383 441 38,000  Level Denver Center
Sat 11:35:30 AM 37.7172 -109.6525 237° Southwest 382 440 38,000  Level Denver Center
Sat 11:36:32 AM 37.6531 -109.7781 237° Southwest 382 440 38,000  Level Denver Center
Sat 11:37:34 AM 37.5969 -109.8878 237° Southwest 388 447 38,000  Level Denver Center
Sat 11:38:36 AM 37.5317 -110.0142 237° Southwest 388 447 38,000  Level Denver Center
Sat 11:39:38 AM 37.4761 -110.1233 237° Southwest 387 445 38,000  Level Denver Center
Sat 11:40:40 AM 37.4192 -110.2331 237° Southwest 382 440 38,000  Level Denver Center
Sat 11:41:42 AM 37.3619 -110.3461 238° Southwest 383 441 38,000  Level Denver Center
Sat 11:42:44 AM 37.2922 -110.4808 237° Southwest 383 441 38,000  Level Denver Center
Sat 11:43:46 AM 37.2331 -110.5931 237° Southwest 385 443 38,000  Level Denver Center
Sat 11:44:48 AM 37.1744 -110.7039 236° Southwest 382 440 38,000  Level Denver Center
Sat 11:45:50 AM 37.1161 -110.8164 237° Southwest 384 442 38,000  Level Denver Center
Sat 11:46:52 AM 37.0578 -110.9281 237° Southwest 384 442 38,000  Level Denver Center
Sat 11:47:54 AM 36.9983 -111.0400 236° Southwest 387 445 38,000  Level Denver Center
Sat 11:48:56 AM 36.9258 -111.1744 236° Southwest 389 448 38,000  Level Denver Center
Sat 11:49:58 AM 36.8667 -111.2869 237° Southwest 388 447 38,000  Level Denver Center
Sat 11:51:00 AM 36.8078 -111.3986 237° Southwest 387 445 38,000  Level Denver Center
Sat 11:52:02 AM 36.7481 -111.5081 236° Southwest 383 441 38,000 -48 Level Denver Center
Sat 11:53:04 AM 36.6886 -111.6192 236° Southwest 383 441 37,900  Descending Denver Center
Sat 11:53:47 AM 36.6436 -111.7056 237° Southwest 381 438 38,000 57 Climbing Los Angeles Center
Sat 11:54:49 AM 36.5894 -111.8214 240° Southwest 386 444 38,000  Level Los Angeles Center
Sat 11:55:50 AM 36.5378 -111.9378 241° Southwest 387 445 38,000  Level Los Angeles Center
Sat 11:56:52 AM 36.4872 -112.0544 242° Southwest 384 442 38,000  Level Los Angeles Center
Sat 11:57:55 AM 36.4372 -112.1706 242° Southwest 383 441 38,000  Level Los Angeles Center
Sat 11:59:08 AM 36.3756 -112.3103 241° Southwest 386 444 38,000  Level Los Angeles Center
Sat 12:00:11 PM 36.3147 -112.4494 242° Southwest 383 441 38,000  Level Los Angeles Center
Sat 12:01:13 PM 36.2633 -112.5669 242° Southwest 387 445 38,000  Level Los Angeles Center
Sat 12:02:14 PM 36.2106 -112.6828 241° Southwest 387 445 38,000  Level Los Angeles Center
Sat 12:03:16 PM 36.1597 -112.7986 242° Southwest 385 443 38,000  Level Los Angeles Center
Sat 12:04:18 PM 36.1075 -112.9142 241° Southwest 385 443 38,000  Level Los Angeles Center
Sat 12:05:20 PM 36.0561 -113.0289 241° Southwest 382 440 38,000  Level Los Angeles Center
Sat 12:06:22 PM 35.9947 -113.1664 241° Southwest 381 438 38,000  Level Los Angeles Center
Sat 12:07:24 PM 35.9506 -113.2642 241° Southwest 382 440 38,000  Level Los Angeles Center
Sat 12:08:26 PM 35.8889 -113.4014 241° Southwest 385 443 38,000  Level Los Angeles Center
Sat 12:09:28 PM 35.8367 -113.5156 241° Southwest 386 444 38,000  Level Los Angeles Center
Sat 12:10:30 PM 35.7836 -113.6308 240° Southwest 385 443 38,000  Level Los Angeles Center
Sat 12:11:32 PM 35.7306 -113.7461 240° Southwest 385 443 38,000  Level Los Angeles Center
Sat 12:12:34 PM 35.6800 -113.8583 241° Southwest 389 448 38,000  Level Los Angeles Center
Sat 12:13:36 PM 35.6158 -113.9944 240° Southwest 389 448 38,000  Level Los Angeles Center
Sat 12:14:38 PM 35.5628 -114.1094 240° Southwest 389 448 38,000  Level Los Angeles Center
Sat 12:15:40 PM 35.5092 -114.2247 240° Southwest 390 449 38,000  Level Los Angeles Center
Sat 12:16:42 PM 35.4511 -114.3492 240° Southwest 390 449 38,000  Level Los Angeles Center
Sat 12:17:44 PM 35.3978 -114.4647 241° Southwest 389 448 38,000  Level Los Angeles Center
Sat 12:18:46 PM 35.3428 -114.5808 240° Southwest 391 450 38,000  Level Los Angeles Center
Sat 12:19:48 PM 35.2869 -114.6953 239° Southwest 391 450 38,000  Level Los Angeles Center
Sat 12:20:50 PM 35.2219 -114.8339 240° Southwest 390 449 38,000  Level Los Angeles Center
Sat 12:21:53 PM 35.1683 -114.9503 241° Southwest 390 449 38,000  Level Los Angeles Center
Sat 12:22:55 PM 35.1131 -115.0658 240° Southwest 393 452 38,000  Level Los Angeles Center
Sat 12:23:57 PM 35.0569 -115.1811 239° Southwest 393 452 38,000  Level Los Angeles Center
Sat 12:24:59 PM 35.0039 -115.2914 240° Southwest 393 452 38,000  Level Los Angeles Center
Sat 12:26:01 PM 34.9492 -115.4050 240° Southwest 391 450 38,000  Level Los Angeles Center
Sat 12:27:03 PM 34.8922 -115.5239 240° Southwest 389 448 38,000  Level Los Angeles Center
Sat 12:28:05 PM 34.8397 -115.6325 240° Southwest 390 449 38,000  Level Los Angeles Center
Sat 12:29:07 PM 34.7728 -115.7689 239° Southwest 391 450 38,000 -581 Level Los Angeles Center
Sat 12:30:09 PM 34.7181 -115.8831 240° Southwest 391 450 36,800 -1,161 Descending Los Angeles Center
Sat 12:31:11 PM 34.6608 -115.9992 239° Southwest 397 457 35,600 -1,161 Descending Los Angeles Center
Sat 12:32:13 PM 34.6011 -116.1194 239° Southwest 410 472 34,400 -1,161 Descending Los Angeles Center
Sat 12:33:15 PM 34.5411 -116.2411 239° Southwest 417 480 33,200 -1,258 Descending Los Angeles Center
Sat 12:34:17 PM 34.4694 -116.3875 239° Southwest 421 484 31,800 -1,258 Descending Los Angeles Center
Sat 12:35:19 PM 34.4078 -116.5094 239° Southwest 424 488 30,600 -1,344 Descending Los Angeles Center
Sat 12:36:22 PM 34.3472 -116.6314 239° Southwest 424 488 29,000 -2,544 Descending Los Angeles Center
Sat 12:37:24 PM 34.2844 -116.7542 238° Southwest 427 491 25,300 -2,903 Descending Los Angeles Center
Sat 12:38:26 PM 34.2244 -116.8753 239° Southwest 421 484 23,000 -2,118 Descending Los Angeles Center
Sat 12:39:40 PM 34.1656 -116.9914 239° Southwest 410 472 20,500 -2,118 Descending Los Angeles Center
Sat 12:40:42 PM 34.0878 -117.1503 239° Southwest 378 435 18,200 -1,947 Descending Los Angeles Center
Sat 12:41:34 PM 34.0500 -117.2500 245° Southwest 353 406 16,800 -1,752 Descending Southern California TRACON
Sat 12:42:35 PM 34.0000 -117.3333 234° Southwest 343 395 14,900 -1,388 Descending Southern California TRACON
Sat 12:43:35 PM 34.0000 -117.4333 270° West 324 373 14,000 -619 Descending Southern California TRACON
Sat 12:44:41 PM 34.0000 -117.5500 270° West 324 373 13,600 -1,048 Descending Southern California TRACON
Sat 12:45:41 PM 34.0000 -117.6500 270° West 312 359 11,800 -2,100 Descending Southern California TRACON
Sat 12:46:41 PM 34.0000 -117.7500 270° West 275 316 9,400 -2,000 Descending Southern California TRACON
Sat 12:47:41 PM 33.9833 -117.8500 259° West 281 323 7,800 -1,450 Descending Southern California TRACON
Sat 12:48:41 PM 33.9833 -117.9333 270° West 278 320 6,500 -1,250 Descending Southern California TRACON
Sat 12:49:41 PM 33.9667 -118.0167 256° West 264 304 5,300 -1,000 Descending Southern California TRACON
Sat 12:50:41 PM 33.9667 -118.1167 270° West 228 262 4,500 -992 Descending Southern California TRACON
Sat 12:51:42 PM 33.9500 -118.1833 253° West 220 253 3,300 -1,041 Descending Southern California TRACON
Sat 12:52:42 PM 33.9500 -118.2500 270° West 188 216 2,400 -950 Descending Southern California TRACON
Sat 12:53:42 PM 33.9500 -118.3000 270° West 158 182 1,400 -850 Descending Southern California TRACON
Sat 12:54:42 PM 33.9333 -118.3500 248° West 141 162 700 -437 Descending Southern California TRACON
Sat 12:56:13 PM 33.9314 -118.4433 269° West 180 207 300 -264 Descending Los Angeles Center

Login

Don't have an account? Register now (free) for customized features, flight alerts, and more!